"Pseudo-MPEC" for P113qP9

Created 2020 Aug 12 18:07:16 UT using Find_Orb

Click here for an explanation of pseudo-MPECs

 
 Astrometry: 
     P113qP9  C2020 07 31h3WTU2ie/_dKmDf\Hgpa?+OILLb0Zxgk,w#Pfi'k]%2sNSD5ZctcF51
     P113qP9  C2020 07 31fF5(0jcbW.o.2yKRhRx%10S_cQAstrometryNw:IaZIPcZ@BR4k`F51
     P113qP9  C2020 07 31j1-3redacted;=+click8O;EhXv=0j@q%iGB#Bt6k4k6FxI=];FRF51
     P113qP9  C2020 08 01;5dkRt\Lk;om]s5_scOw@.wr1o/';aBPL3\FI.ldX_GQN`$k6vB0F52
     P113qP9  C2020 08 01+@)i8C*T?5SKhereV4rAl1BC9)!*?w'O\!2yj%vN3c9I5s%Il;#CF52
     P113qP9  C2020 08 018q9UEj\NM];Mt-r?ATs!We!LCxd:$WIIH,RuCmUKAW'N*FNKUG23F52
     P113qP9  C2020 08 01(_0ZI$_[Mb)3:XWa3((D/VNU^0,Zws\)w_a\@4D#9[YHa]mforpmF51
     P113qP9  C2020 08 01A%Ruj^Vg1rInobUQ]CP`Eiv$CD?75NYo._dLO7Ow,7R8NOh5u1eSF51
     P113qP9  C2020 08 01T/explanations5!bc4WiBaaBjxqg*csvkHZwOEQ*UJ?0f\DD%f:F51
     P113qP9  C2020 08 01fM7VK.w0Kp`=%w.wG8RK17G`5LP8TgHYOECUo*LhcI^qF+dRVOnGF51
     P113qP9 ^C2020 08 12.48175600 20 01.329+35 37 12.83   ~8CHb 21.87GVNEOCP568
     P113qP9 ^C2020 08 12.48330600 20 01.304+35 37 13.33   ~8CHb 21.84GVNEOCP568

Station data:
(568) Mauna Kea  (N19.826116 W155.472200)  US/Hawaii.
(F51) Pan-STARRS 1, Haleakala  (N20.707235 W156.255910)  US/Hawaii.
   Observers N. Primak, A. Schultz, S. Watters, J. Thiel, T. Goggia. Measurer
   PS1 Science Consortium. 1.8-m Ritchey-Chrétien + CCD.
(F52) Pan-STARRS 2, Haleakala  (N20.707384 W156.255910)  US/Hawaii. 1.8-m
   Ritchey-Chrétien + CCD.

Orbital elements:  P113qP9
   Perihelion 2021 Apr 21.951281 +/- 305 TT = 22:49:50 (JD 2459326.451281)
Epoch 2020 Aug 12.0 TT = JDT 2459073.5   Ju: 0.0785           AutoNEOCP
M 339.13116023 +/- 26               (J2000 ecliptic)
n   0.08250141 +/- 0.00239          Peri.   92.50147 +/- 30
a   5.22590810 +/- 0.101            Node   302.37412 +/- 0.58
e   0.0629386 +/- 0.0216            Incl.   29.02201 +/- 0.12
P  11.95                   H 14.9   G  0.15   U  8.8  
q 4.89699638 +/- 0.156    Q 5.55481982 +/- 0.147
From 12 observations 2020 July 31-Aug. 12; mean residual 0".13
Residuals in arcseconds: 
200731 F51  .03+  .00     200801 F52  .01-  .05-    200801 F51  .32-  .24+    
200731 F51  .07-  .06-    200801 F52  .23+  .05+    200801 F51  .11-  .16-    
200731 F51  .02+  .07+    200801 F51  .12-  .18+    200812 568  .02-  .00     
200801 F52  .26+  .20-    200801 F51  .10-  .01+    200812 568  .02+  .00     

Ephemerides (geocentric):
Date (UTC) HH   RA              Dec         delta   r     elong  mag " sig PA
---- -- -- --  -------------   -----------  ------ ------ -----  --- ---- ---
2020 08 12 18  00 19 56.673   +35 38 39.21  4.3980 4.9213 115.6 22.2 .114  73
2020 08 12 19  00 19 55.955   +35 38 52.65  4.3975 4.9213 115.6 22.2 .129  73
2020 08 12 20  00 19 55.235   +35 39 06.08  4.3970 4.9213 115.7 22.2 .144  73
2020 08 12 21  00 19 54.513   +35 39 19.50  4.3966 4.9213 115.7 22.2 .159  73
2020 08 12 22  00 19 53.790   +35 39 32.90  4.3961 4.9213 115.7 22.2 .174  73
2020 08 12 23  00 19 53.066   +35 39 46.29  4.3956 4.9213 115.8 22.2 .189  73
2020 08 13 00  00 19 52.340   +35 39 59.68  4.3952 4.9213 115.8 22.2 .204  73
2020 08 13 01  00 19 51.613   +35 40 13.05  4.3947 4.9213 115.8 22.2 .220  73
2020 08 13 02  00 19 50.884   +35 40 26.41  4.3942 4.9212 115.9 22.2 .236  73
2020 08 13 03  00 19 50.154   +35 40 39.75  4.3938 4.9212 115.9 22.2 .251  73
2020 08 13 04  00 19 49.422   +35 40 53.09  4.3933 4.9212 115.9 22.2 .267  73
2020 08 13 05  00 19 48.689   +35 41 06.41  4.3928 4.9212 116.0 22.2 .283  73
2020 08 13 06  00 19 47.954   +35 41 19.72  4.3923 4.9212 116.0 22.2 .299  73
2020 08 13 07  00 19 47.218   +35 41 33.02  4.3919 4.9212 116.0 22.2 .315  73
2020 08 13 08  00 19 46.481   +35 41 46.30  4.3914 4.9212 116.0 22.2 .332  73
2020 08 13 09  00 19 45.742   +35 41 59.58  4.3909 4.9212 116.1 22.2 .348  73
2020 08 13 10  00 19 45.001   +35 42 12.84  4.3905 4.9212 116.1 22.2 .365  73
2020 08 13 11  00 19 44.259   +35 42 26.09  4.3900 4.9212 116.1 22.2 .381  73
2020 08 13 12  00 19 43.516   +35 42 39.33  4.3895 4.9212 116.2 22.2 .398  73
2020 08 13 13  00 19 42.771   +35 42 52.55  4.3891 4.9212 116.2 22.2 .415  74
2020 08 13 14  00 19 42.024   +35 43 05.77  4.3886 4.9212 116.2 22.2 .432  74
2020 08 13 15  00 19 41.277   +35 43 18.97  4.3881 4.9211 116.3 22.2 .449  74
2020 08 13 16  00 19 40.527   +35 43 32.16  4.3877 4.9211 116.3 22.2 .466  74
2020 08 13 17  00 19 39.776   +35 43 45.34  4.3872 4.9211 116.3 22.2 .483  74
2020 08 13 18  00 19 39.024   +35 43 58.50  4.3867 4.9211 116.4 22.2 .501  73
2020 08 13 19  00 19 38.271   +35 44 11.66  4.3863 4.9211 116.4 22.2 .518  73
2020 08 13 20  00 19 37.515   +35 44 24.80  4.3858 4.9211 116.4 22.2 .536  73
2020 08 13 21  00 19 36.759   +35 44 37.93  4.3853 4.9211 116.5 22.2 .554  73
2020 08 13 22  00 19 36.001   +35 44 51.04  4.3849 4.9211 116.5 22.2 .572  73
2020 08 13 23  00 19 35.241   +35 45 04.15  4.3844 4.9211 116.5 22.2 .590  73
2020 08 14 00  00 19 34.480   +35 45 17.24  4.3839 4.9211 116.6 22.2 .608  73
2020 08 14 01  00 19 33.717   +35 45 30.32  4.3835 4.9211 116.6 22.2 .626  73
2020 08 14 02  00 19 32.954   +35 45 43.39  4.3830 4.9211 116.6 22.2 .644  73
2020 08 14 03  00 19 32.188   +35 45 56.44  4.3825 4.9211 116.7 22.2 .663  73
2020 08 14 04  00 19 31.421   +35 46 09.49  4.3821 4.9210 116.7 22.2 .681  73
2020 08 14 05  00 19 30.653   +35 46 22.52  4.3816 4.9210 116.7 22.2 .700  73
2020 08 14 06  00 19 29.883   +35 46 35.54  4.3811 4.9210 116.8 22.2 .719  73
2020 08 14 07  00 19 29.112   +35 46 48.55  4.3807 4.9210 116.8 22.2 .738  73
2020 08 14 08  00 19 28.339   +35 47 01.54  4.3802 4.9210 116.8 22.2 .757  73
2020 08 14 09  00 19 27.565   +35 47 14.52  4.3798 4.9210 116.9 22.2 .776  73
2020 08 14 10  00 19 26.789   +35 47 27.49  4.3793 4.9210 116.9 22.2 .795  73
2020 08 14 11  00 19 26.012   +35 47 40.45  4.3788 4.9210 116.9 22.2 .814  73
2020 08 14 12  00 19 25.234   +35 47 53.40  4.3784 4.9210 117.0 22.2 .834  73
2020 08 14 13  00 19 24.454   +35 48 06.33  4.3779 4.9210 117.0 22.2 .853  73
2020 08 14 14  00 19 23.672   +35 48 19.25  4.3774 4.9210 117.0 22.2 .873  73
2020 08 14 15  00 19 22.889   +35 48 32.16  4.3770 4.9210 117.0 22.2 .893  73
2020 08 14 16  00 19 22.105   +35 48 45.05  4.3765 4.9210 117.1 22.2 .913  73
2020 08 14 17  00 19 21.319   +35 48 57.94  4.3761 4.9209 117.1 22.2 .933  73